CZ-6A DEB, 55529

Orbit data source: Space-Track

CZ-6A DEB, 55529 is space debris in SSO originally from a launch on Fri, 11 Nov 2022 UTC launched from the Taiyaun Space Center, China (TSC). Debris objects in space refer to the collection of defunct objects orbiting the Earth. Examples of debris include non-operational satellites, rocket bodies, and fragments generated from explosions, collisions, or faulty payload assembly.

Loading next visibility...
Identifier
55529, 2022-151YB
Orbit
SSO
Country
Flag of CNCN / PRC
Related business
Manufacturer
SAST
Mission
Spacecraft
Bus & Motor
Unknown
Mass
Unknown
Launch date (UTC)
2022-11-11 (4 years ago)
Launch vehicle
Unknown
Launch site
Taiyaun Space Center, China (TSC)
Object type
Payload
Rocket body
Debris
Shape & HBR
Unknown shape, 0.1 m
Radar Cross Section
Medium (>0.1 m² and <1 m²)

Expand to show TLE details & history
Last TLE update: 12 hours ago

TLE from 12 hours ago
0 CZ-6A DEB
1 55529U 22151YB  26264.42650497  .00003336  00000-0  65180-3 0  9992
2 55529  98.6125 325.6596 0084517  12.9099 347.4237 14.61371107198537
Epoch: 2026-09-21T10:14Z
TLE epoch observation values (Epoch: 2026-09-21T10:14:10.029Z)
Latitude
-0.00004°
Longitude
171.81132°
Altitude
633.442 km
Speed
7.573 km/s
True Right ascension
21h 42m 38s
True Declination
0° 00' 00"
Sunlit
Object was in full shadow at epoch
Visualization orbit readout
Latitude
Unknown
Longitude
Unknown
Altitude
Unknown
Speed
Unknown
Apparent Right ascension
Unknown
Apparent Declination
Unknown
Sunlit
N/A
Visualization observer readout
Local Sidereal Time
14:52:57
Azimuth
Unknown
Elevation
Unknown
Doppler factor
Unknown
Orbital elements
Apogee altitude
745.551 km
Perigee altitude
626.146 km
Semi-major axis
7,063.986 km
Eccentricity
0.00845
Inclination
98.6125°
RAAN
325.6596°
Arg. of periapsis
12.9099°
True anomaly
347.21063°
Mean anomaly
347.4237°
Eccentric anomaly
347.31738°
Mean motion
3.65568 °/min
Orbital period
98.48 mins
BSTAR
0.0006518
Loading maneuver chart data...
Computing Atmospheric mass density...
Loading historical data...
Loading historical data...
Loading historical data...
Loading historical data...
Loading historical data...
Loading historical data...
Loading historical data...

Documentation

Showing up to 5 results
|